Disclaimer

Please do not use the information listed here in-flight or in-navigation, as they are not provided to us by the airports but are provided by volunteers, so they might be outdated.

Search


Regions


Airport information page

Radio informations:
RDO - 126.55 MHz
Ground (GND) - 121.7 MHz

Airport informations:
Latitude: 64° 07' 48.00" N
Longitude: 021° 56' 26.00" W
Elevation: 48 feet - 15 meters
Operating hours: 24 hour operations
Operating agency: Civil government, landing fees and diplomatic clearance may be required
Timezone: UTC 0
Fuel: Jet A1, without icing nhibitor.

100/130 MIL Spec, low lead, aviation gasoline (BLUE)

Runway information:
01/19 - 5141 x 148 feet< - >1567 x 45 meters
06/24 - 3150 x 98 feet< - >960 x 30 meters
13/31 - 4035 x 148 feet< - >1230 x 45 meters

Recent METARs:
BIRK 212000Z 27005KT 9999 FEW026 M00/M05 Q0977
BIRK 212100Z 23011KT 200V270 0900 R19/0600V1500N -SHSN FEW007CB OVC009 M01/M03 Q0978
BIRK 212100Z 23011KT 200V270 0900 R19/0600V1500N -SHSN FEW007CB OVC009 M01/M03 Q0978

Airport on the map: